Time,TemperatureF,DewpointF,PressureIn,WindDirection,WindDirectionDegrees,WindSpeedMPH,WindSpeedGustMPH,Humidity,HourlyPrecipIn,Conditions,Clouds,dailyrainin,SoftwareType,DateUTC
2013-09-15 00:03:00,-999.0,-99.9,-100.00,East,95,0.0,1.0,-999,-99.99,,,-99.99,,2013-09-15 04:03:00,
2013-09-15 00:14:00,56.0,52.0,-100.00,East,95,0.0,1.0,85,-99.99,,,-99.99,,2013-09-15 04:14:00,
2013-09-15 00:24:00,56.0,52.0,-100.00,SE,145,0.0,1.0,87,-99.99,,,-99.99,,2013-09-15 04:24:00,
2013-09-15 00:34:00,56.0,52.0,-100.00,SE,145,0.0,1.0,87,-99.99,,,-99.99,,2013-09-15 04:34:00,
2013-09-15 00:55:00,55.0,52.0,-100.00,South,170,0.0,1.0,89,-99.99,,,-99.99,,2013-09-15 04:55:00,
2013-09-15 01:13:00,54.0,52.0,-100.00,ESE,110,0.0,0.0,91,-99.99,,,-99.99,,2013-09-15 05:13:00,
2013-09-15 01:23:00,53.0,51.0,-100.00,NE,50,0.0,0.0,93,-99.99,,,-99.99,,2013-09-15 05:23:00,
2013-09-15 01:52:00,53.0,52.0,-100.00,NNE,20,0.0,1.0,96,-99.99,,,-99.99,,2013-09-15 05:52:00,
2013-09-15 02:12:00,53.0,52.0,-100.00,North,10,0.0,1.0,97,-99.99,,,-99.99,,2013-09-15 06:12:00,
2013-09-15 02:22:00,53.0,52.0,-100.00,North,10,0.0,1.0,97,-99.99,,,-99.99,,2013-09-15 06:22:00,
2013-09-15 02:52:00,52.0,52.0,-100.00,NE,35,0.0,0.0,98,-99.99,,,-99.99,,2013-09-15 06:52:00,
2013-09-15 03:11:00,52.0,52.0,-100.00,NNE,30,0.0,0.0,98,-99.99,,,-99.99,,2013-09-15 07:11:00,
2013-09-15 03:22:00,52.0,51.0,-100.00,North,5,0.0,0.0,98,-99.99,,,-99.99,,2013-09-15 07:22:00,
2013-09-15 03:33:00,52.0,51.0,-100.00,North,5,0.0,0.0,98,-99.99,,,-99.99,,2013-09-15 07:33:00,
2013-09-15 03:53:00,51.0,50.0,-100.00,North,0,0.0,0.0,98,-99.99,,,-99.99,,2013-09-15 07:53:00,
2013-09-15 04:11:00,51.0,50.0,-100.00,North,5,0.0,0.0,98,-99.99,,,-99.99,,2013-09-15 08:11:00,
2013-09-15 04:22:00,51.0,50.0,-100.00,NNE,15,0.0,0.0,98,-99.99,,,-99.99,,2013-09-15 08:22:00,
2013-09-15 04:32:00,51.0,50.0,-100.00,NNE,15,0.0,0.0,98,-99.99,,,-99.99,,2013-09-15 08:32:00,
2013-09-15 04:52:00,51.0,50.0,-100.00,NNE,25,0.0,0.0,98,-99.99,,,-99.99,,2013-09-15 08:52:00,
2013-09-15 05:12:00,50.0,50.0,-100.00,NNE,20,0.0,0.0,98,-99.99,,,-99.99,,2013-09-15 09:12:00,
2013-09-15 05:22:00,50.0,49.0,-100.00,North,355,0.0,0.0,98,-99.99,,,-99.99,,2013-09-15 09:22:00,
2013-09-15 05:33:00,50.0,49.0,-100.00,North,355,0.0,0.0,98,-99.99,,,-99.99,,2013-09-15 09:33:00,
2013-09-15 05:54:00,50.0,49.0,-100.00,NNE,20,0.0,0.0,98,-99.99,,,-99.99,,2013-09-15 09:54:00,
2013-09-15 06:03:00,50.0,49.0,-100.00,NNE,20,0.0,0.0,98,-99.99,,,-99.99,,2013-09-15 10:03:00,
2013-09-15 06:23:00,49.0,49.0,-100.00,North,355,0.0,1.0,98,-99.99,,,-99.99,,2013-09-15 10:23:00,
2013-09-15 06:32:00,49.0,49.0,-100.00,North,355,0.0,1.0,98,-99.99,,,-99.99,,2013-09-15 10:32:00,
2013-09-15 06:53:00,49.0,48.0,-100.00,North,355,0.0,0.0,98,-99.99,,,-99.99,,2013-09-15 10:53:00,
2013-09-15 07:12:00,48.0,48.0,-100.00,North,355,0.0,0.0,98,-99.99,,,-99.99,,2013-09-15 11:12:00,
2013-09-15 07:22:00,48.0,48.0,-100.00,NNE,20,0.0,0.0,98,-99.99,,,-99.99,,2013-09-15 11:22:00,
2013-09-15 07:33:00,48.0,48.0,-100.00,NNE,20,0.0,0.0,98,-99.99,,,-99.99,,2013-09-15 11:33:00,
2013-09-15 07:52:00,48.0,48.0,-100.00,North,355,0.0,0.0,98,-99.99,,,-99.99,,2013-09-15 11:52:00,
2013-09-15 08:12:00,48.0,48.0,-100.00,ENE,60,0.0,0.0,98,-99.99,,,-99.99,,2013-09-15 12:12:00,
2013-09-15 08:21:00,49.0,48.0,-100.00,NNW,340,0.0,0.0,98,-99.99,,,-99.99,,2013-09-15 12:21:00,
2013-09-15 08:32:00,49.0,48.0,-100.00,NNW,340,0.0,0.0,98,-99.99,,,-99.99,,2013-09-15 12:32:00,
2013-09-15 08:52:00,49.0,49.0,-100.00,North,5,0.0,0.0,98,-99.99,,,-99.99,,2013-09-15 12:52:00,
2013-09-15 09:22:00,53.0,53.0,-100.00,East,100,0.0,0.0,98,-99.99,,,-99.99,,2013-09-15 13:22:00,
2013-09-15 09:32:00,53.0,53.0,-100.00,East,100,0.0,0.0,98,-99.99,,,-99.99,,2013-09-15 13:32:00,
2013-09-15 09:53:00,57.0,56.0,-100.00,East,80,0.0,0.0,98,-99.99,,,-99.99,,2013-09-15 13:53:00,
2013-09-15 10:22:00,64.0,54.0,-100.00,NE,40,0.0,2.0,70,-99.99,,,-99.99,,2013-09-15 14:22:00,
2013-09-15 15:22:00,79.0,47.0,-100.00,WSW,250,3.0,7.0,32,-99.99,,,-99.99,,2013-09-15 19:22:00,
2013-09-15 15:32:00,79.0,47.0,-100.00,WSW,250,3.0,7.0,32,-99.99,,,-99.99,,2013-09-15 19:32:00,
2013-09-15 15:52:00,80.0,48.0,-100.00,East,85,1.0,7.0,33,-99.99,,,-99.99,,2013-09-15 19:52:00,
2013-09-15 16:11:00,80.0,49.0,-100.00,SSE,160,2.0,6.0,33,-99.99,,,-99.99,,2013-09-15 20:11:00,
2013-09-15 16:22:00,82.0,50.0,-100.00,ESE,110,0.0,4.0,32,-99.99,,,-99.99,,2013-09-15 20:22:00,
2013-09-15 16:32:00,82.0,50.0,-100.00,ESE,110,0.0,4.0,32,-99.99,,,-99.99,,2013-09-15 20:32:00,
2013-09-15 16:53:00,82.0,49.0,-100.00,SSW,195,1.0,6.0,31,-99.99,,,-99.99,,2013-09-15 20:53:00,
2013-09-15 17:11:00,83.0,49.0,-100.00,SE,145,0.0,10.0,31,-99.99,,,-99.99,,2013-09-15 21:11:00,
2013-09-15 17:22:00,82.0,47.0,-100.00,West,265,3.0,8.0,30,-99.99,,,-99.99,,2013-09-15 21:22:00,
2013-09-15 17:34:00,82.0,47.0,-100.00,West,265,3.0,8.0,30,-99.99,,,-99.99,,2013-09-15 21:34:00,
2013-09-15 17:54:00,82.0,48.0,-100.00,West,270,2.0,7.0,30,-99.99,,,-99.99,,2013-09-15 21:54:00,
2013-09-15 18:14:00,83.0,49.0,-100.00,West,280,1.0,6.0,31,-99.99,,,-99.99,,2013-09-15 22:14:00,
2013-09-15 18:23:00,82.0,49.0,-100.00,SW,230,1.0,7.0,32,-99.99,,,-99.99,,2013-09-15 22:23:00,
2013-09-15 18:33:00,82.0,49.0,-100.00,SW,230,1.0,7.0,32,-99.99,,,-99.99,,2013-09-15 22:33:00,
2013-09-15 18:54:00,79.0,49.0,-100.00,WSW,255,1.0,12.0,35,-99.99,,,-99.99,,2013-09-15 22:54:00,
2013-09-15 19:12:00,79.0,50.0,-100.00,ESE,115,0.0,6.0,37,-99.99,,,-99.99,,2013-09-15 23:12:00,
2013-09-15 19:22:00,76.0,52.0,-100.00,SE,130,0.0,2.0,43,-99.99,,,-99.99,,2013-09-15 23:22:00,
2013-09-15 19:33:00,76.0,52.0,-100.00,SE,130,0.0,2.0,43,-99.99,,,-99.99,,2013-09-15 23:33:00,
2013-09-15 19:53:00,74.0,54.0,-100.00,ENE,75,0.0,2.0,51,-99.99,,,-99.99,,2013-09-15 23:53:00,
2013-09-15 20:11:00,72.0,56.0,-100.00,ESE,115,0.0,1.0,58,-99.99,,,-99.99,,2013-09-16 00:11:00,
2013-09-15 20:22:00,70.0,57.0,-100.00,East,95,0.0,0.0,64,-99.99,,,-99.99,,2013-09-16 00:22:00,
2013-09-15 20:32:00,70.0,57.0,-100.00,East,95,0.0,0.0,64,-99.99,,,-99.99,,2013-09-16 00:32:00,
2013-09-15 20:52:00,69.0,59.0,-100.00,SE,140,0.0,1.0,70,-99.99,,,-99.99,,2013-09-16 00:52:00,
2013-09-15 21:12:00,68.0,59.0,-100.00,NE,40,0.0,0.0,73,-99.99,,,-99.99,,2013-09-16 01:12:00,
2013-09-15 21:21:00,67.0,60.0,-100.00,ESE,110,0.0,0.0,77,-99.99,,,-99.99,,2013-09-16 01:21:00,
2013-09-15 21:32:00,67.0,60.0,-100.00,ESE,110,0.0,0.0,77,-99.99,,,-99.99,,2013-09-16 01:32:00,
2013-09-15 21:52:00,66.0,60.0,-100.00,ESE,105,0.0,0.0,79,-99.99,,,-99.99,,2013-09-16 01:52:00,
2013-09-15 22:12:00,66.0,59.0,-100.00,East,90,0.0,0.0,80,-99.99,,,-99.99,,2013-09-16 02:12:00,
2013-09-15 22:22:00,65.0,60.0,-100.00,ESE,120,0.0,0.0,83,-99.99,,,-99.99,,2013-09-16 02:22:00,
2013-09-15 22:32:00,65.0,60.0,-100.00,ESE,120,0.0,0.0,83,-99.99,,,-99.99,,2013-09-16 02:32:00,
2013-09-15 22:52:00,65.0,60.0,-100.00,East,90,0.0,0.0,86,-99.99,,,-99.99,,2013-09-16 02:52:00,
2013-09-15 23:11:00,64.0,60.0,-100.00,East,100,0.0,1.0,87,-99.99,,,-99.99,,2013-09-16 03:11:00,
2013-09-15 23:23:00,63.0,60.0,-100.00,SSE,155,0.0,2.0,89,-99.99,,,-99.99,,2013-09-16 03:23:00,
2013-09-15 23:34:00,63.0,60.0,-100.00,SSE,155,0.0,2.0,89,-99.99,,,-99.99,,2013-09-16 03:34:00,
2013-09-15 23:55:00,63.0,60.0,-100.00,SE,130,0.0,0.0,91,-99.99,,,-99.99,,2013-09-16 03:55:00,